Bowling Green, Kentucky, United States (42101)
Lat: 36.99N, Lon: 86.44W
Wx Zone: KYZ071
Local Info
Past Weather Observations for Today

NOTE: This archive is for the closest National Weather Service station to Bowling Green. Information may differ from the station used for current weather conditions.

Click here for Long-term Archive

Time Weather Temperature Dewpoint Humidity Pressure Winds Precip Visibility
10:55
Mostly Cloudy
73°F / 23°C 64°F / 18°C 74% 29.98 in
(1015 mb)
SW 5.8 mph
(SW 9 kph)
- 10SM
10:35
Mostly Cloudy
75°F / 24°C 66°F / 19°C 74% 29.95 in
(1014 mb)
S 8.1 mph
(S 13 kph)
- 10SM
10:15
Overcast
73°F / 23°C 66°F / 19°C 78% 29.98 in
(1015 mb)
SSW 6.9 mph
(SSW 11 kph)
- 10SM
09:55
Overcast
72°F / 22°C 64°F / 18°C 78% 29.98 in
(1015 mb)
SW 6.9 mph
(SW 11 kph)
- 10SM
09:35
Overcast
72°F / 22°C 68°F / 20°C 88% 29.98 in
(1015 mb)
SW 4.6 mph
(SW 7 kph)
- 10SM
09:15
Overcast
70°F / 21°C 68°F / 20°C 94% 29.98 in
(1015 mb)
SSW 4.6 mph
(SSW 7 kph)
- 10SM
08:55
Overcast
68°F / 20°C 68°F / 20°C 100% 29.98 in
(1015 mb)
SW 4.6 mph
(SW 7 kph)
- 10SM
08:35
Overcast
68°F / 20°C 68°F / 20°C 100% 29.98 in
(1015 mb)
SSW 4.6 mph
(SSW 7 kph)
- 10SM
08:15
Overcast
68°F / 20°C 68°F / 20°C 100% 29.98 in
(1015 mb)
SW 3.5 mph
(SW 6 kph)
- 10SM
07:55
Overcast
68°F / 20°C 68°F / 20°C 100% 29.98 in
(1015 mb)
SW 3.5 mph
(SW 6 kph)
- 10SM
07:35
Overcast
66°F / 19°C 66°F / 19°C 100% 29.95 in
(1014 mb)
Calm - 7SM
07:15
Overcast
66°F / 19°C 66°F / 19°C 100% 29.98 in
(1015 mb)
Calm - 7SM
06:55
Overcast
66°F / 19°C 66°F / 19°C 100% 29.98 in
(1015 mb)
NNW 3.5 mph
(NNW 6 kph)
- 7SM
06:35
Overcast
66°F / 19°C 66°F / 19°C 100% 29.95 in
(1014 mb)
W 5.8 mph
(W 9 kph)
- 7SM
06:15
Mostly Cloudy
66°F / 19°C 66°F / 19°C 100% 29.95 in
(1014 mb)
Calm - 7SM
05:55
Mostly Cloudy
Fog And Mist
64°F / 18°C 64°F / 18°C 100% 29.95 in
(1014 mb)
Calm 0.01 in
(0.25 mm)
5SM
05:35
Mostly Cloudy
Fog And Mist
63°F / 17°C 63°F / 17°C 100% 29.95 in
(1014 mb)
Calm 0.01 in
(0.25 mm)
4SM
05:15
Mostly Cloudy
Fog And Mist
63°F / 17°C 63°F / 17°C 100% 29.95 in
(1014 mb)
Calm 0.01 in
(0.25 mm)
2 1/2SM
04:55
Partly Cloudy
Fog And Mist
63°F / 17°C 63°F / 17°C 100% 29.92 in
(1013 mb)
Calm - 2 1/2SM
04:35
Mostly Cloudy
63°F / 17°C 63°F / 17°C 100% 29.92 in
(1013 mb)
Calm - 7SM
04:15
Overcast
Fog And Mist
63°F / 17°C 63°F / 17°C 100% 29.92 in
(1013 mb)
Calm - 4SM
03:55
Overcast
63°F / 17°C 63°F / 17°C 100% 29.92 in
(1013 mb)
Calm - 7SM
03:35
Overcast
63°F / 17°C 63°F / 17°C 100% 29.92 in
(1013 mb)
Calm - 7SM
03:15
Mostly Cloudy
63°F / 17°C 63°F / 17°C 100% 29.92 in
(1013 mb)
Calm - 10SM
02:55
Mostly Cloudy
63°F / 17°C 63°F / 17°C 100% 29.92 in
(1013 mb)
Calm - 10SM
02:35
Overcast
64°F / 18°C 64°F / 18°C 100% 29.92 in
(1013 mb)
Calm - 10SM
02:15
Overcast
64°F / 18°C 64°F / 18°C 100% 29.89 in
(1012 mb)
S 3.5 mph
(S 6 kph)
- 10SM
01:55
Overcast
64°F / 18°C 64°F / 18°C 100% 29.92 in
(1013 mb)
S 3.5 mph
(S 6 kph)
0.01 in
(0.25 mm)
10SM
01:35
Overcast
64°F / 18°C 64°F / 18°C 100% 29.92 in
(1013 mb)
Calm 0.01 in
(0.25 mm)
10SM
01:15
Overcast
64°F / 18°C 64°F / 18°C 100% 29.89 in
(1012 mb)
SSW 3.5 mph
(SSW 6 kph)
0.01 in
(0.25 mm)
10SM
00:55
Overcast
Light Rain
64°F / 18°C 64°F / 18°C 100% 29.92 in
(1013 mb)
Calm - 10SM
00:35
Overcast
Drizzle
64°F / 18°C 64°F / 18°C 100% 29.92 in
(1013 mb)
SW 3.5 mph
(SW 6 kph)
- 10SM
00:15
Overcast
Light Rain
64°F / 18°C 64°F / 18°C 100% 29.92 in
(1013 mb)
S 3.5 mph
(S 6 kph)
- 10SM
Time Weather Temperature Dewpoint Humidity Pressure Winds Precip Visibility


Weather for websites

WeatherForYou.com, LLC is not responsible for any damages or problems caused by this service. Current weather conditions are obtained from the closest station including government and personal stations which may have varying degrees of accuracy. Weather forecasts are derived from the NOAA NDFD. Like all things, this site belongs to Jesus Christ... He just trusts us to maintain it. If you have any questions or comments email webmaster@weatherforyou.com

Copyright © 2016, WeatherForYou.com LLC. All rights reserved.